Zorg en Hoop Airport

Jump to: basic info | weather | comments

Related pages: nearby airports | nearby navaids | notams | map

Basic information (top)

Codes: ORG SMZO
Location: lon 5.811080, lat -55.190701, elev 10 ft / 3 m msl
Status: small_airport

Weather (top)

Current conditions (rec'd 2015/01/26 18:00Z):

SMZO 261800Z 04008KT 9999 FEW025TCU SCT035 31/22 Q1012 NOSIG

Airport forecast (rec'd 2015/01/23 00:30Z):

TAF TAF SMZO 222200Z 2300/2324 VRB02KT CAVOK TX31/2318Z TN25/2310Z 
     FM231100 07012KT 9999 SCT020 
      TEMPO 2318/2320 5000 SHRA FEW018CB SCT025

Latest comments (top)

KLM flights from Caracas - Paramaribo - Dakar - Madrid - fra: I would like to know if this airport ... [read]

More... (top)

See also NOTAMs and nearby airports and navaids, or visit the Zorg en Hoop Airport page at the main OurAirports website..